K4HG-2 Cudjoe Key FL US current weather conditions

sailwx.info

Wind from 082 at 0 knots gusting 11

Air temperature 29.4° C
Dewpoint 26.6° C

Last reported at 2020-Sep-24 14:03 UTC.
Time now 2020-Sep-24 15:08 UTC

Location: N 24°40' W 081°29'.
View on Google Maps.

See reports from other nearby stations

  
Tides and Currents Weather Stations Pressure Air Temp Water Temp Dewpoint Dewpoint Depression Visibility Wind Speed Wind Dir Waves Ship Positions
date/time (UTC)wind fromknots sea level pressurealtimeterstation pressurevisibilityair tempwater tempwave heightnotes
2020-Sep-24 14:03 082 0 gusting 11 29.4
2020-Sep-24 13:51 077 5 gusting 13 29.4
2020-Sep-24 13:49 091 4 gusting 13 29.4
2020-Sep-24 13:44 102 3 gusting 8 28.9
2020-Sep-24 13:39 102 0 gusting 11 28.9
2020-Sep-24 13:31 225 2 gusting 12 28.9
2020-Sep-24 13:29 078 6 gusting 12 28.9
2020-Sep-24 13:09 104 6 gusting 9 28.3
2020-Sep-24 13:04 098 2 gusting 11 28.9
2020-Sep-24 12:58 084 5 gusting 11 28.3
2020-Sep-24 12:54 060 4 gusting 11 28.3
2020-Sep-24 12:48 077 7 gusting 8 28.9
2020-Sep-24 12:42 098 1 gusting 10 28.3
2020-Sep-24 12:37 080 5 gusting 8 28.9
2020-Sep-24 12:34 097 7 gusting 8 28.9
2020-Sep-24 12:29 063 5 gusting 10 28.9
2020-Sep-24 12:24 168 1 gusting 10 28.9
2020-Sep-24 12:19 074 6 gusting 12 28.9
2020-Sep-24 12:13 088 3 gusting 10 28.9
2020-Sep-24 12:08 088 5 gusting 10 28.9
2020-Sep-24 12:04 077 5 gusting 9 28.9
2020-Sep-24 11:59 047 2 gusting 8 28.9
2020-Sep-24 11:50 078 3 gusting 10 28.3
2020-Sep-24 11:49 081 3 gusting 10 28.3
2020-Sep-24 11:43 090 5 gusting 6 28.3
2020-Sep-24 11:39 090 2 gusting 6 27.8
2020-Sep-24 11:33 081 2 gusting 8 27.8
2020-Sep-24 11:29 085 1 gusting 15 28.3
2020-Sep-24 11:24 009 7 gusting 15 28.3
2020-Sep-24 11:19 064 7 gusting 10 28.9
2020-Sep-24 11:14 081 5 gusting 9 28.9
2020-Sep-24 11:08 088 2 gusting 6 28.9
2020-Sep-24 11:04 098 3 gusting 8 28.9
2020-Sep-24 10:59 112 3 gusting 13 28.9
2020-Sep-24 10:54 094 5 gusting 10 28.9
2020-Sep-24 10:46 077 5 gusting 13 28.3
2020-Sep-24 10:44 075 7 gusting 13 28.3
2020-Sep-24 10:38 168 2 gusting 14 28.3
2020-Sep-24 10:33 080 4 gusting 8 28.9
2020-Sep-24 10:29 070 6 gusting 11 28.9
2020-Sep-24 10:23 066 7 gusting 17 28.9
2020-Sep-24 10:18 066 13 gusting 12 28.9
2020-Sep-24 10:14 075 5 gusting 7 28.9
2020-Sep-24 10:09 143 0 gusting 9 28.9
2020-Sep-24 10:03 087 4 gusting 6 28.9
2020-Sep-24 09:58 092 3 gusting 7 28.9
2020-Sep-24 09:53 087 3 gusting 8 28.9
2020-Sep-24 09:48 088 6 gusting 6 29.4
2020-Sep-24 09:44 087 4 gusting 6 28.9
2020-Sep-24 09:39 047 28.9
2020-Sep-24 09:32 088 4 gusting 11 29.4
2020-Sep-24 09:29 087 4 gusting 11 28.9
2020-Sep-24 09:21 085 3 gusting 6 28.9
2020-Sep-24 09:19 071 5 gusting 6 28.9
2020-Sep-24 09:14 061 3 gusting 9 28.9
2020-Sep-24 09:07 081 4 gusting 9 28.9
2020-Sep-24 09:04 060 1 gusting 9 28.9
2020-Sep-24 08:59 078 1 gusting 7 28.9
2020-Sep-24 08:54 063 5 gusting 12 28.9
2020-Sep-24 08:47 073 5 gusting 7 28.9
2020-Sep-24 08:41 098 2 gusting 9 28.9
2020-Sep-24 08:38 078 4 gusting 9 28.9
2020-Sep-24 08:33 077 5 gusting 8 28.9
2020-Sep-24 08:28 104 1 gusting 15 28.3
2020-Sep-24 08:24 108 6 gusting 8 28.3
2020-Sep-24 08:18 078 1 gusting 9 28.3
2020-Sep-24 08:13 050 1 gusting 9 28.3
2020-Sep-24 08:02 078 4 gusting 13 28.3
2020-Sep-24 07:57 070 5 gusting 9 28.3
2020-Sep-24 07:54 087 3 gusting 9 28.3
2020-Sep-24 07:46 084 2 gusting 13 27.8
2020-Sep-24 07:43 168 1 gusting 13 27.8
2020-Sep-24 07:37 090 7 gusting 8 27.8
2020-Sep-24 07:33 082 3 gusting 8 28.3
2020-Sep-24 07:28 063 6 gusting 12 27.8
2020-Sep-24 07:21 071 10 gusting 10 28.3
2020-Sep-24 07:19 087 6 gusting 10 28.9
2020-Sep-24 07:14 073 5 gusting 7 28.9
2020-Sep-24 07:09 067 5 gusting 9 28.9
2020-Sep-24 07:04 078 5 gusting 7 28.9
2020-Sep-24 06:57 074 4 gusting 8 28.9
2020-Sep-24 06:54 064 5 gusting 8 28.9
2020-Sep-24 06:48 081 4 gusting 7 28.9
2020-Sep-24 06:42 057 3 gusting 7 28.9
2020-Sep-24 06:39 080 28.9
2020-Sep-24 06:34 090 2 gusting 6 28.9
2020-Sep-24 06:28 084 6 gusting 7 28.9
2020-Sep-24 06:22 074 3 gusting 7 28.9
2020-Sep-24 06:16 092 5 gusting 7 28.9
2020-Sep-24 06:10 049 2 gusting 7 28.9
2020-Sep-24 06:09 115 3 gusting 7 28.9
2020-Sep-24 06:04 084 5 gusting 6 28.9
2020-Sep-24 05:59 049 1 gusting 6 28.9
2020-Sep-24 05:53 098 2 gusting 7 28.9
2020-Sep-24 05:49 067 3 gusting 6 28.9
2020-Sep-24 05:44 046 3 gusting 7 28.9
2020-Sep-24 05:39 052 4 gusting 6 28.9
2020-Sep-24 05:34 088 1 gusting 6 28.9
2020-Sep-24 05:25 057 5 gusting 6 28.9
2020-Sep-24 05:18 068 1 gusting 7 28.9
2020-Sep-24 05:13 097 28.9
2020-Sep-24 05:09 098 3 gusting 5 28.9
2020-Sep-24 05:02 071 4 gusting 6 28.9
2020-Sep-24 04:59 078 6 gusting 6 28.9
2020-Sep-24 04:54 091 3 gusting 7 28.9
2020-Sep-24 04:47 059 6 gusting 6 28.9
2020-Sep-24 04:44 074 6 gusting 6 28.9
2020-Sep-24 04:38 095 2 gusting 6 28.9
2020-Sep-24 04:30 078 6 gusting 7 28.9
2020-Sep-24 04:27 078 0 gusting 7 28.9
2020-Sep-24 04:23 035 3 gusting 7 28.9
2020-Sep-24 04:18 085 3 gusting 6 28.9
2020-Sep-24 04:13 066 6 gusting 9 28.9
2020-Sep-24 04:09 071 3 gusting 9 28.9
2020-Sep-24 04:04 063 7 gusting 6 28.9
2020-Sep-24 03:57 102 0 gusting 9 28.9
2020-Sep-24 03:53 087 1 gusting 9 28.3
2020-Sep-24 03:49 070 3 gusting 9 28.9
2020-Sep-24 03:42 059 4 gusting 8 28.9
2020-Sep-24 03:39 085 6 gusting 8 28.9
2020-Sep-24 03:34 073 0 gusting 6 28.9
2020-Sep-24 03:28 081 2 gusting 7 28.9
2020-Sep-24 03:23 053 6 gusting 7 28.9
2020-Sep-24 03:19 082 6 gusting 8 28.3
2020-Sep-24 03:13 073 6 gusting 7 28.9
2020-Sep-24 03:09 050 3 gusting 7 28.9
2020-Sep-24 03:04 052 1 gusting 8 28.3
2020-Sep-24 02:58 073 5 gusting 9 28.9
2020-Sep-24 02:54 088 5 gusting 7 28.3
2020-Sep-24 02:49 087 6 gusting 8 28.9
2020-Sep-24 02:43 074 2 gusting 7 28.9
2020-Sep-24 02:37 071 2 gusting 8 28.9
2020-Sep-24 02:33 118 2 gusting 8 28.9
2020-Sep-24 02:29 077 5 gusting 9 28.9
2020-Sep-24 02:23 081 6 gusting 7 28.9
2020-Sep-24 02:18 073 5 gusting 9 28.9
2020-Sep-24 02:14 052 2 gusting 9 28.9
2020-Sep-24 02:09 113 2 gusting 10 28.9
2020-Sep-24 02:02 085 3 gusting 9 28.9
2020-Sep-24 01:57 101 0 gusting 9 28.9
2020-Sep-24 01:54 036 3 gusting 9 28.9
2020-Sep-24 01:48 077 4 gusting 9 28.9
2020-Sep-24 01:41 098 2 gusting 9 28.9
2020-Sep-24 01:39 063 28.9
2020-Sep-24 01:34 059 5 gusting 7 28.9
2020-Sep-24 01:29 106 4 gusting 11 28.9
2020-Sep-24 01:22 067 4 gusting 9 28.9
2020-Sep-24 01:19 077 2 gusting 9 28.9
2020-Sep-24 01:13 064 2 gusting 8 28.9
2020-Sep-24 01:08 077 5 gusting 7 28.9
2020-Sep-24 01:04 095 4 gusting 10 28.9
2020-Sep-24 00:56 358 4 gusting 10 28.9
2020-Sep-24 00:54 035 4 gusting 10 28.9
2020-Sep-24 00:48 060 6 gusting 12 28.9
2020-Sep-24 00:44 078 1 gusting 13 28.9
2020-Sep-24 00:37 068 8 gusting 9 28.9
2020-Sep-24 00:34 095 5 gusting 9 28.9
2020-Sep-24 00:29 068 4 gusting 13 28.9
2020-Sep-24 00:22 070 5 gusting 11 28.9
2020-Sep-24 00:15 075 7 gusting 10 28.9
2020-Sep-24 00:13 090 9 gusting 10 28.9
2020-Sep-24 00:09 085 6 gusting 11 28.9
2020-Sep-24 00:04 085 7 gusting 11 28.9
2020-Sep-23 23:56 071 5 gusting 11 29.4
2020-Sep-23 23:54 109 1 gusting 11 28.9
2020-Sep-23 23:49 071 7 gusting 12 29.4
2020-Sep-23 23:44 097 6 gusting 10 28.9
2020-Sep-23 23:39 046 3 gusting 13 28.9
2020-Sep-23 23:34 014 5 gusting 12 29.4
2020-Sep-23 23:29 052 3 gusting 8 28.9
2020-Sep-23 23:24 078 2 gusting 9 29.4
2020-Sep-23 23:18 040 5 gusting 8 28.9
2020-Sep-23 23:13 074 5 gusting 11 28.9
2020-Sep-23 23:09 087 5 gusting 11 29.4
2020-Sep-23 23:04 066 4 gusting 9 29.4
2020-Sep-23 22:55 053 4 gusting 8 29.4
2020-Sep-23 22:52 091 2 gusting 11 29.4
2020-Sep-23 22:48 047 2 gusting 11 29.4
2020-Sep-23 22:41 066 5 gusting 11 29.4
2020-Sep-23 22:39 080 6 gusting 11 29.4
2020-Sep-23 22:34 061 4 gusting 15 29.4
2020-Sep-23 22:27 082 2 gusting 11 29.4
2020-Sep-23 22:24 070 5 gusting 11 29.4
2020-Sep-23 22:17 070 10 gusting 11 29.4
2020-Sep-23 22:11 081 6 gusting 10 29.4
2020-Sep-23 22:09 060 5 gusting 10 29.4
2020-Sep-23 22:03 064 9 gusting 11 30.0
2020-Sep-23 21:59 053 4 gusting 13 30.0
2020-Sep-23 21:54 068 7 gusting 9 29.4
2020-Sep-23 21:48 082 6 gusting 10 30.0
2020-Sep-23 21:44 060 5 gusting 13 29.4
2020-Sep-23 21:40 061 9 gusting 10 29.4
2020-Sep-23 21:34 087 7 gusting 13 29.4
2020-Sep-23 21:29 098 4 gusting 9 29.4
2020-Sep-23 21:23 057 6 gusting 11 29.4
2020-Sep-23 21:17 064 8 gusting 10 29.4
2020-Sep-23 21:14 087 5 gusting 10 29.4
2020-Sep-23 21:09 060 6 gusting 12 29.4
2020-Sep-23 21:04 049 5 gusting 10 29.4
2020-Sep-23 20:59 066 6 gusting 9 29.4
2020-Sep-23 20:54 075 8 gusting 8 29.4
2020-Sep-23 20:49 097 3 gusting 11 29.4
2020-Sep-23 20:44 080 4 gusting 9 29.4
2020-Sep-23 20:38 067 7 gusting 13 29.4
2020-Sep-23 20:34 033 3 gusting 12 30.0
2020-Sep-23 20:29 108 4 gusting 8 30.0
2020-Sep-23 20:22 066 6 gusting 11 30.0
2020-Sep-23 20:18 101 5 gusting 11 30.0
2020-Sep-23 20:14 068 4 gusting 14 30.0
2020-Sep-23 20:09 047 4 gusting 11 30.0
2020-Sep-23 20:04 070 6 gusting 13 30.0
2020-Sep-23 19:58 098 2 gusting 9 30.0
2020-Sep-23 19:52 095 4 gusting 13 30.0
2020-Sep-23 19:49 075 8 gusting 13 30.0
2020-Sep-23 19:42 071 6 gusting 13 30.6
2020-Sep-23 19:39 080 8 gusting 13 30.6
2020-Sep-23 19:32 144 1 gusting 13 30.0
2020-Sep-23 19:28 068 6 gusting 13 30.0
2020-Sep-23 19:23 049 6 gusting 10 30.0
2020-Sep-23 19:19 042 3 gusting 13 30.0
2020-Sep-23 19:14 099 4 gusting 11 30.6
2020-Sep-23 19:08 080 6 gusting 15 30.0
2020-Sep-23 19:03 060 5 gusting 15 30.6
2020-Sep-23 18:59 090 6 gusting 12 30.6
2020-Sep-23 18:54 054 6 gusting 12 31.1
2020-Sep-23 18:48 054 5 gusting 14 30.6
2020-Sep-23 18:44 042 6 gusting 13 30.6
2020-Sep-23 18:39 087 9 gusting 13 30.6
2020-Sep-23 18:34 033 5 gusting 17 30.6
2020-Sep-23 18:29 064 12 gusting 12 30.6
2020-Sep-23 18:24 064 9 gusting 8 30.6
2020-Sep-23 18:19 091 5 gusting 14 31.1
2020-Sep-23 18:12 094 7 gusting 14 31.1
2020-Sep-23 18:08 046 6 gusting 14 30.6
2020-Sep-23 18:04 095 5 gusting 13 30.6
2020-Sep-23 17:58 061 12 gusting 13 30.6
2020-Sep-23 17:54 067 9 gusting 13 31.1
2020-Sep-23 17:47 108 7 gusting 16 30.6
2020-Sep-23 17:44 077 6 gusting 16 30.6
2020-Sep-23 17:39 078 6 gusting 15 30.6
2020-Sep-23 17:33 060 7 gusting 13 31.1
2020-Sep-23 17:28 054 8 gusting 13 31.1
2020-Sep-23 17:24 085 5 gusting 15 31.1
2020-Sep-23 17:18 025 6 gusting 13 31.1
2020-Sep-23 17:13 060 8 gusting 12 31.1
2020-Sep-23 17:03 050 7 gusting 14 30.6
2020-Sep-23 16:59 087 13 gusting 14 31.1
2020-Sep-23 16:53 090 3 gusting 13 30.6
2020-Sep-23 16:49 077 8 gusting 13 30.6
2020-Sep-23 16:44 077 4 gusting 12 31.1
2020-Sep-23 16:39 067 8 gusting 13 30.6
2020-Sep-23 16:33 090 4 gusting 12 31.1
2020-Sep-23 16:29 046 10 gusting 13 30.6
2020-Sep-23 16:19 070 7 gusting 13 30.6
2020-Sep-23 16:14 092 6 gusting 12 30.6
2020-Sep-23 16:09 056 8 gusting 12 30.6
2020-Sep-23 16:03 098 3 gusting 12 30.6
2020-Sep-23 15:56 056 6 gusting 13 30.6
2020-Sep-23 15:53 082 6 gusting 13 31.1
2020-Sep-23 15:49 077 7 gusting 11 30.6
2020-Sep-23 15:43 090 9 gusting 13 30.6
2020-Sep-23 15:39 111 2 gusting 11 30.6
2020-Sep-23 15:34 098 6 gusting 11 30.6
2020-Sep-23 15:29 120 6 gusting 11 30.6
2020-Sep-23 15:24 075 7 gusting 11 30.6
2020-Sep-23 15:19 068 6 gusting 12 30.6
2020-Sep-23 15:12 068 5 gusting 12 30.6
2020-Sep-23 15:06 095 2 gusting 12 30.6
2020-Sep-23 15:04 067 5 gusting 12 30.6
2020-Sep-23 14:56 104 5 gusting 14 30.6
2020-Sep-23 14:54 101 1 gusting 14 30.6
2020-Sep-23 14:49 097 6 gusting 13 30.0
2020-Sep-23 14:43 077 9 gusting 11 30.0
2020-Sep-23 14:39 082 6 gusting 11 30.0
2020-Sep-23 14:31 077 7 gusting 10 30.0
2020-Sep-23 14:29 068 7 gusting 10 30.0
2020-Sep-23 14:23 061 3 gusting 12 29.4
2020-Sep-23 14:19 067 4 gusting 11 29.4
2020-Sep-23 14:10 077 6 gusting 10 29.4
2020-Sep-23 14:09 075 6 gusting 10 29.4
2020-Sep-23 14:01 090 5 gusting 9 30.0
2020-Sep-23 13:57 115 2 gusting 9 29.4
2020-Sep-23 13:53 056 2 gusting 9 29.4
2020-Sep-23 13:45 081 4 gusting 8 29.4
2020-Sep-23 13:42 049 29.4
2020-Sep-23 13:39 081 8 gusting 12 29.4
2020-Sep-23 13:31 057 5 gusting 9 29.4
2020-Sep-23 13:29 063 6 gusting 9 29.4
2020-Sep-23 13:24 074 6 gusting 9 29.4
2020-Sep-23 13:18 097 4 gusting 10 29.4
2020-Sep-23 13:12 064 8 gusting 8 29.4
2020-Sep-23 13:07 053 7 gusting 13 29.4
2020-Sep-23 13:04 078 5 gusting 13 29.4
2020-Sep-23 12:58 063 7 gusting 9 28.9
2020-Sep-23 12:54 085 5 gusting 7 28.9
2020-Sep-23 12:49 094 4 gusting 9 28.3
2020-Sep-23 12:44 095 2 gusting 9 28.3
2020-Sep-23 12:39 057 2 gusting 9 27.8
2020-Sep-23 12:32 070 4 gusting 7 28.3
2020-Sep-23 12:29 090 3 gusting 7 27.8
2020-Sep-23 12:22 070 1 gusting 6 27.8
2020-Sep-23 12:18 060 5 gusting 6 27.8
2020-Sep-23 12:14 113 27.8
2020-Sep-23 12:07 037 2 gusting 5 27.8
2020-Sep-23 12:02 059 2 gusting 5 27.8
2020-Sep-23 11:59 052 2 gusting 5 27.8
2020-Sep-23 11:54 073 3 gusting 6 27.8
2020-Sep-23 11:46 067 5 gusting 4 27.8
2020-Sep-23 11:42 043 27.8
2020-Sep-23 11:39 066 2 gusting 6 27.8
2020-Sep-23 11:32 074 1 gusting 8 27.8
2020-Sep-23 11:29 078 3 gusting 8 27.8
2020-Sep-23 11:24 084 6 gusting 8 27.8
2020-Sep-23 11:19 061 4 gusting 8 27.8
2020-Sep-23 11:14 099 1 gusting 6 27.8
2020-Sep-23 11:09 092 1 gusting 6 27.2
2020-Sep-23 11:04 108 4 gusting 6 27.8
2020-Sep-23 10:59 102 1 gusting 9 27.2
2020-Sep-23 10:50 074 3 gusting 11 27.2
2020-Sep-23 10:48 078 5 gusting 11 27.8
2020-Sep-23 10:44 095 3 gusting 9 27.2
2020-Sep-23 10:39 071 7 gusting 10 27.2
2020-Sep-23 10:31 094 1 gusting 8 27.2
2020-Sep-23 10:27 077 4 gusting 7 27.2
2020-Sep-23 10:23 067 5 gusting 7 27.2
2020-Sep-23 10:19 056 3 gusting 10 27.8
2020-Sep-23 10:14 068 9 gusting 11 27.8
2020-Sep-23 10:09 059 10 gusting 8 27.2
2020-Sep-23 10:04 157 3 gusting 9 27.8
2020-Sep-23 09:58 053 2 gusting 11 27.8
2020-Sep-23 09:53 061 6 gusting 12 27.8
2020-Sep-23 09:48 090 6 gusting 7 27.8
2020-Sep-23 09:44 078 6 gusting 12 27.8
2020-Sep-23 09:39 054 7 gusting 13 27.8
2020-Sep-23 09:34 057 5 gusting 10 27.8
2020-Sep-23 09:29 073 2 gusting 11 27.8
2020-Sep-23 09:23 052 6 gusting 9 27.8
2020-Sep-23 09:18 067 3 gusting 11 27.8
2020-Sep-23 09:14 088 6 gusting 10 28.3
2020-Sep-23 09:05 052 3 gusting 10 27.8
2020-Sep-23 09:03 064 7 gusting 10 27.8
2020-Sep-23 08:57 094 5 gusting 13 28.3
2020-Sep-23 08:53 050 6 gusting 13 27.8
2020-Sep-23 08:49 095 7 gusting 13 27.8
2020-Sep-23 08:41 094 4 gusting 11 28.3
2020-Sep-23 08:39 053 6 gusting 11 27.8
2020-Sep-23 08:34 057 6 gusting 12 27.8
2020-Sep-23 08:26 084 7 gusting 12 27.8
2020-Sep-23 08:22 098 6 gusting 11 27.8
2020-Sep-23 08:19 094 5 gusting 11 27.8
2020-Sep-23 08:14 045 5 gusting 12 27.8
2020-Sep-23 08:06 057 4 gusting 18 27.8
2020-Sep-23 08:04 060 5 gusting 18 28.3
2020-Sep-23 07:56 028 0 gusting 11 28.3
2020-Sep-23 07:45 039 12 gusting 9 28.3
2020-Sep-23 07:41 026 7 gusting 11 28.3
2020-Sep-23 07:39 143 3 gusting 11 28.3
2020-Sep-23 07:33 084 7 gusting 12 28.3
2020-Sep-23 07:29 043 7 gusting 13 28.3
2020-Sep-23 07:23 070 6 gusting 11 28.3
2020-Sep-23 07:17 070 6 gusting 10 28.3
2020-Sep-23 07:14 047 6 gusting 10 28.3
2020-Sep-23 07:08 045 5 gusting 13 28.3
2020-Sep-23 07:03 035 7 gusting 16 28.3
2020-Sep-23 06:59 078 10 gusting 14 28.3
2020-Sep-23 06:54 036 0 gusting 13 28.3
2020-Sep-23 06:49 082 6 gusting 14 28.3
2020-Sep-23 06:43 070 9 gusting 14 28.3
2020-Sep-23 06:39 060 4 gusting 13 28.3
2020-Sep-23 06:34 033 6 gusting 13 28.3
2020-Sep-23 06:27 094 6 gusting 15 28.3
2020-Sep-23 06:20 357 10 gusting 11 28.3
2020-Sep-23 06:19 063 13 gusting 11 28.3
2020-Sep-23 06:14 067 7 gusting 13 28.3
2020-Sep-23 06:07 043 4 gusting 15 28.3
2020-Sep-23 06:04 071 6 gusting 15 28.3
2020-Sep-23 05:59 049 7 gusting 15 28.3
2020-Sep-23 05:50 066 6 gusting 13 28.3
2020-Sep-23 05:49 052 6 gusting 13 28.3
2020-Sep-23 05:44 077 6 gusting 12 28.3
2020-Sep-23 05:38 099 3 gusting 11 28.3
2020-Sep-23 05:34 067 6 gusting 13 28.3
2020-Sep-23 05:29 090 6 gusting 13 28.3
2020-Sep-23 05:24 068 5 gusting 12 28.3
2020-Sep-23 05:18 067 6 gusting 14 28.3
2020-Sep-23 05:14 033 4 gusting 12 28.3
2020-Sep-23 05:07 085 6 gusting 12 28.3
2020-Sep-23 05:04 071 5 gusting 12 28.3
2020-Sep-23 04:59 025 3 gusting 11 28.3
2020-Sep-23 04:53 066 4 gusting 11 28.3
2020-Sep-23 04:49 127 5 gusting 9 28.3
2020-Sep-23 04:39 070 6 gusting 11 28.3
2020-Sep-23 04:34 077 9 gusting 15 28.3
2020-Sep-23 04:29 075 8 gusting 14 28.3
2020-Sep-23 04:22 101 3 gusting 13 28.3
2020-Sep-23 04:18 054 4 gusting 13 28.3
2020-Sep-23 04:14 085 4 gusting 12 28.3
2020-Sep-23 04:06 016 7 gusting 13 28.3
2020-Sep-23 04:02 049 6 gusting 11 28.3
2020-Sep-23 03:58 142 6 gusting 11 28.3
2020-Sep-23 03:53 063 4 gusting 9 28.3
2020-Sep-23 03:49 090 4 gusting 11 28.3
2020-Sep-23 03:44 077 6 gusting 12 28.3
2020-Sep-23 03:39 021 4 gusting 13 28.3
2020-Sep-23 03:34 090 6 gusting 10 28.3
2020-Sep-23 03:25 092 7 gusting 12 28.3
2020-Sep-23 03:23 094 4 gusting 12 28.3
2020-Sep-23 03:19 060 8 gusting 11 28.3
2020-Sep-23 03:14 035 8 gusting 10 28.3
2020-Sep-23 03:08 059 2 gusting 12 28.9
2020-Sep-23 03:04 068 5 gusting 13 28.3
2020-Sep-23 02:58 077 5 gusting 10 28.3
2020-Sep-23 02:54 064 3 gusting 10 28.3
2020-Sep-23 02:48 060 5 gusting 14 28.9
2020-Sep-23 02:44 067 6 gusting 13 28.9
2020-Sep-23 02:39 077 6 gusting 13 28.9
2020-Sep-23 02:34 098 9 gusting 16 28.3
2020-Sep-23 02:27 071 4 gusting 12 28.9
2020-Sep-23 02:24 039 2 gusting 12 28.9
2020-Sep-23 02:19 039 5 gusting 12 28.9
2020-Sep-23 02:13 052 4 gusting 14 28.9
2020-Sep-23 02:05 091 9 gusting 13 28.9
2020-Sep-23 02:04 092 8 gusting 13 28.3
2020-Sep-23 01:59 067 6 gusting 14 28.9
2020-Sep-23 01:53 102 7 gusting 13 28.9
2020-Sep-23 01:49 046 5 gusting 15 28.9
2020-Sep-23 01:44 037 10 gusting 13 28.3
2020-Sep-23 01:39 019 2 gusting 13 28.9
2020-Sep-23 01:34 056 7 gusting 11 28.9
2020-Sep-23 01:28 067 4 gusting 14 28.9
2020-Sep-23 01:21 052 11 gusting 14 28.9
2020-Sep-23 01:19 077 6 gusting 14 28.9
2020-Sep-23 01:09 064 15 gusting 14 28.9
2020-Sep-23 01:04 067 13 gusting 11 28.9
2020-Sep-23 00:56 066 4 gusting 12 28.9
2020-Sep-23 00:54 071 7 gusting 12 28.9
2020-Sep-23 00:49 046 6 gusting 12 28.9
2020-Sep-23 00:43 088 6 gusting 13 28.9
2020-Sep-23 00:39 046 6 gusting 12 28.9
2020-Sep-23 00:34 073 6 gusting 13 28.9
2020-Sep-23 00:29 099 6 gusting 12 28.9
2020-Sep-23 00:24 077 5 gusting 12 28.9
2020-Sep-23 00:19 095 6 gusting 14 28.9
2020-Sep-23 00:14 033 10 gusting 14 29.4
2020-Sep-23 00:09 081 4 gusting 14 28.9
2020-Sep-23 00:02 077 9 gusting 13 28.9
2020-Sep-22 23:59 081 5 gusting 13 29.4
2020-Sep-22 23:53 108 7 gusting 13 28.9
2020-Sep-22 23:49 045 5 gusting 13 29.4
2020-Sep-22 23:43 009 3 gusting 13 28.9
2020-Sep-22 23:37 045 7 gusting 9 29.4
2020-Sep-22 23:34 067 7 gusting 9 29.4
2020-Sep-22 23:27 036 6 gusting 13 29.4
2020-Sep-22 23:24 039 5 gusting 13 29.4
2020-Sep-22 23:19 061 7 gusting 15 29.4
2020-Sep-22 23:13 061 6 gusting 15 29.4
2020-Sep-22 23:09 092 8 gusting 13 29.4
2020-Sep-22 23:04 067 5 gusting 13 29.4
2020-Sep-22 22:57 071 6 gusting 12 29.4
2020-Sep-22 22:54 080 3 gusting 12 29.4
2020-Sep-22 22:49 045 3 gusting 13 30.0
2020-Sep-22 22:44 066 9 gusting 15 29.4
2020-Sep-22 22:36 053 7 gusting 13 30.0
2020-Sep-22 22:31 082 11 gusting 10 30.0
2020-Sep-22 22:29 071 7 gusting 10 30.0
2020-Sep-22 22:24 060 6 gusting 15 30.0
2020-Sep-22 22:19 056 12 gusting 13 30.0
2020-Sep-22 22:13 063 6 gusting 12 30.0
2020-Sep-22 22:09 037 3 gusting 13 30.0
2020-Sep-22 22:04 054 6 gusting 13 30.0
2020-Sep-22 21:59 074 5 gusting 13 30.0
2020-Sep-22 21:52 035 10 gusting 15 30.0
2020-Sep-22 21:49 054 6 gusting 15 30.0
2020-Sep-22 21:41 078 6 gusting 14 30.0
2020-Sep-22 21:39 068 10 gusting 14 30.0
2020-Sep-22 21:31 077 4 gusting 13 30.0
2020-Sep-22 21:27 075 8 gusting 11 30.6
2020-Sep-22 21:24 075 6 gusting 11 30.0
2020-Sep-22 21:15 084 11 gusting 13 30.0
2020-Sep-22 21:14 073 6 gusting 13 30.0
2020-Sep-22 21:09 057 4 gusting 15 30.0
2020-Sep-22 21:04 099 6 gusting 14 30.6
2020-Sep-22 20:58 021 10 gusting 12 30.6
2020-Sep-22 20:54 047 9 gusting 12 30.6
2020-Sep-22 20:46 085 6 gusting 11 30.6
2020-Sep-22 20:43 074 10 gusting 11 30.6
2020-Sep-22 20:39 074 5 gusting 14 30.6
2020-Sep-22 20:34 073 4 gusting 13 30.6
2020-Sep-22 20:28 070 4 gusting 13 30.6
2020-Sep-22 20:23 087 5 gusting 11 30.6
2020-Sep-22 20:19 066 7 gusting 14 30.6
2020-Sep-22 20:13 056 6 gusting 11 30.6
2020-Sep-22 20:09 052 4 gusting 11 30.6
2020-Sep-22 20:04 090 6 gusting 13 31.1
2020-Sep-22 19:59 098 7 gusting 12 30.6
2020-Sep-22 19:54 077 4 gusting 13 30.6
2020-Sep-22 19:47 066 9 gusting 13 30.6
2020-Sep-22 19:43 091 3 gusting 13 30.6
2020-Sep-22 19:39 067 9 gusting 16 30.6
2020-Sep-22 19:29 098 7 gusting 11 30.6
2020-Sep-22 19:24 092 5 gusting 13 30.6
2020-Sep-22 19:18 063 3 gusting 13 31.1
2020-Sep-22 19:14 082 6 gusting 12 31.1
2020-Sep-22 19:06 082 3 gusting 13 30.6
2020-Sep-22 19:04 071 5 gusting 13 30.6
2020-Sep-22 18:59 066 11 gusting 13 30.6
2020-Sep-22 18:53 060 6 gusting 13 30.6
2020-Sep-22 18:48 068 6 gusting 14 30.6
2020-Sep-22 18:43 084 3 gusting 13 30.6
2020-Sep-22 18:39 078 12 gusting 13 30.6
2020-Sep-22 18:33 077 6 gusting 15 31.1
2020-Sep-22 18:29 113 6 gusting 16 31.1
2020-Sep-22 18:24 078 7 gusting 12 31.1
2020-Sep-22 18:18 078 6 gusting 14 30.6
2020-Sep-22 18:14 080 6 gusting 13 30.6
2020-Sep-22 18:08 067 6 gusting 13 31.1
2020-Sep-22 18:04 090 6 gusting 13 31.1
2020-Sep-22 17:57 039 5 gusting 16 30.6
2020-Sep-22 17:51 082 12 gusting 13 31.1
2020-Sep-22 17:49 077 13 gusting 13 31.1
2020-Sep-22 17:44 099 6 gusting 9 31.1
2020-Sep-22 17:39 098 2 gusting 12 30.6
2020-Sep-22 17:33 073 5 gusting 14 30.6
2020-Sep-22 17:29 101 6 gusting 13 30.6
2020-Sep-22 17:23 068 3 gusting 12 30.6
2020-Sep-22 17:16 085 5 gusting 15 30.6
2020-Sep-22 17:14 084 7 gusting 15 30.6
2020-Sep-22 17:06 075 7 gusting 13 30.6
2020-Sep-22 17:03 123 1 gusting 13 30.6
2020-Sep-22 16:59 091 1 gusting 13 30.6
2020-Sep-22 16:53 057 3 gusting 12 30.6
2020-Sep-22 16:49 102 4 gusting 13 31.1
2020-Sep-22 16:44 061 30.6
2020-Sep-22 16:36 073 2 gusting 15 30.6
2020-Sep-22 16:33 068 7 gusting 15 30.6
2020-Sep-22 16:29 090 6 gusting 17 30.6
2020-Sep-22 16:22 105 6 gusting 15 31.1
2020-Sep-22 16:16 073 6 gusting 13 31.1
2020-Sep-22 16:14 119 3 gusting 13 31.1
2020-Sep-22 16:09 077 2 gusting 17 30.6
2020-Sep-22 16:04 071 7 gusting 15 30.6
2020-Sep-22 15:59 104 6 gusting 16 31.1
2020-Sep-22 15:52 081 13 gusting 15 30.6
2020-Sep-22 15:49 052 6 gusting 15 30.6
2020-Sep-22 15:44 045 6 gusting 15 30.6
2020-Sep-22 15:38 045 11 gusting 14 30.6
2020-Sep-22 15:34 061 13 gusting 15 30.6
2020-Sep-22 15:27 061 3 gusting 16 30.6
2020-Sep-22 15:24 075 6 gusting 16 30.6
2020-Sep-22 15:19 057 6 gusting 17 30.0
2020-Sep-22 15:14 101 8 gusting 17 30.6
2020-Sep-22 15:09 052 6 gusting 14 30.6
2020-Sep-22 15:01 099 7 gusting 14 30.6